WAT1744 EGKK-EGPH

Flight info

Callsign WAT1744
Flight time 1h 24m
Altitude 40000
Route LAM L10 BPK UN601 RIBEL DCT INPIP
Aircraft HDJT/L-SABDGRWY/H

Departure

Time 2026-04-20 23:06
Airport London Gatwick Airport (EGKK)

Arrival

Time 2026-04-21 00:31
Airport Edinburgh Airport (EGPH)
Time Latitude Longitude Altitude Speed Heading
2026-04-20 22:51 51.15315 -0.17992 200 ft 0 kts 348°
2026-04-20 22:58 51.15316 -0.17992 200 ft 0 kts 348°
2026-04-20 22:58 51.15317 -0.17994 200 ft 1 kts 306°
2026-04-20 22:58 51.15316 -0.18001 207 ft 1 kts 211°
2026-04-20 22:59 51.15302 -0.17992 200 ft 6 kts 155°
2026-04-20 22:59 51.15256 -0.17985 200 ft 7 kts 200°
2026-04-20 22:59 51.15219 -0.18045 200 ft 9 kts 256°
2026-04-20 22:59 51.15203 -0.18165 200 ft 13 kts 257°
2026-04-20 23:00 51.15182 -0.18332 200 ft 17 kts 259°
2026-04-20 23:00 51.15157 -0.18534 205 ft 20 kts 259°
2026-04-20 23:00 51.15127 -0.18748 203 ft 20 kts 259°
2026-04-20 23:00 51.15098 -0.18963 205 ft 20 kts 257°
2026-04-20 23:01 51.15069 -0.19175 204 ft 20 kts 258°
2026-04-20 23:01 51.15041 -0.19387 203 ft 19 kts 258°
2026-04-20 23:01 51.15012 -0.19599 202 ft 20 kts 257°
2026-04-20 23:01 51.14981 -0.19809 204 ft 20 kts 256°
2026-04-20 23:02 51.14951 -0.20025 197 ft 20 kts 259°
2026-04-20 23:02 51.14920 -0.20258 197 ft 23 kts 257°
2026-04-20 23:02 51.14886 -0.20519 197 ft 25 kts 258°
2026-04-20 23:02 51.14848 -0.20784 196 ft 24 kts 258°
2026-04-20 23:03 51.14817 -0.21009 197 ft 18 kts 258°
2026-04-20 23:03 51.14808 -0.21077 201 ft 0 kts 258°
2026-04-20 23:04 51.14808 -0.21079 201 ft 1 kts 258°
2026-04-20 23:04 51.14791 -0.21161 206 ft 13 kts 240°
2026-04-20 23:04 51.14765 -0.21323 196 ft 15 kts 260°
2026-04-20 23:04 51.14724 -0.21404 196 ft 6 kts 176°
2026-04-20 23:05 51.14682 -0.21383 202 ft 9 kts 147°
2026-04-20 23:05 51.14604 -0.21320 197 ft 16 kts 168°
2026-04-20 23:05 51.14523 -0.21215 198 ft 17 kts 104°
2026-04-20 23:05 51.14561 -0.20882 201 ft 66 kts 77°
2026-04-20 23:06 51.14721 -0.19700 205 ft 146 kts 76°
2026-04-20 23:06 51.14966 -0.18018 576 ft 170 kts 76°
2026-04-20 23:06 51.15234 -0.16027 1161 ft 185 kts 76°
2026-04-20 23:06 51.15492 -0.14103 1815 ft 178 kts 75°
2026-04-20 23:07 51.15753 -0.12208 2826 ft 174 kts 75°
2026-04-20 23:07 51.16027 -0.10217 3423 ft 196 kts 75°
2026-04-20 23:07 51.16332 -0.08080 4329 ft 198 kts 71°
2026-04-20 23:07 51.16911 -0.06086 5257 ft 200 kts 55°
2026-04-20 23:08 51.17762 -0.04310 6156 ft 204 kts 51°
2026-04-20 23:08 51.18638 -0.02494 7038 ft 209 kts 51°
2026-04-20 23:08 51.19536 -0.00619 7880 ft 216 kts 51°
2026-04-20 23:08 51.20466 0.01302 8810 ft 221 kts 51°
2026-04-20 23:09 51.21416 0.03270 9679 ft 227 kts 51°
2026-04-20 23:09 51.22391 0.05291 10536 ft 232 kts 50°
2026-04-20 23:09 51.23372 0.07326 11354 ft 236 kts 50°
2026-04-20 23:09 51.24376 0.09436 12200 ft 240 kts 53°
2026-04-20 23:10 51.25098 0.11876 13045 ft 247 kts 71°
2026-04-20 23:10 51.25447 0.14596 13920 ft 253 kts 77°
2026-04-20 23:10 51.25773 0.17376 14732 ft 257 kts 76°
2026-04-20 23:10 51.26125 0.20251 15172 ft 277 kts 76°
2026-04-20 23:11 51.26504 0.23395 15194 ft 297 kts 76°
2026-04-20 23:11 51.27178 0.26499 15210 ft 295 kts 60°
2026-04-20 23:11 51.28309 0.29193 15212 ft 291 kts 44°
2026-04-20 23:11 51.29930 0.31014 15207 ft 284 kts 18°
2026-04-20 23:12 51.31843 0.31457 15260 ft 272 kts 352°
2026-04-20 23:12 51.33582 0.30741 15885 ft 248 kts 334°
2026-04-20 23:12 51.35067 0.29364 16795 ft 248 kts 326°
2026-04-20 23:12 51.36532 0.27875 17640 ft 251 kts 327°
2026-04-20 23:13 51.38038 0.26445 18531 ft 252 kts 328°
2026-04-20 23:13 51.39538 0.25048 19307 ft 253 kts 328°
2026-04-20 23:13 51.41049 0.23615 20172 ft 252 kts 327°
2026-04-20 23:13 51.42551 0.22185 21023 ft 251 kts 326°
2026-04-20 23:14 51.44048 0.20760 21879 ft 250 kts 326°
2026-04-20 23:14 51.45542 0.19340 22760 ft 249 kts 325°
2026-04-20 23:14 51.47030 0.17923 23637 ft 249 kts 324°
2026-04-20 23:14 51.48520 0.16504 24383 ft 249 kts 324°
2026-04-20 23:15 51.50011 0.15081 25022 ft 251 kts 324°
2026-04-20 23:15 51.51518 0.13642 25656 ft 253 kts 323°
2026-04-20 23:15 51.53035 0.12195 26264 ft 255 kts 323°
2026-04-20 23:15 51.54565 0.10732 26869 ft 257 kts 323°
2026-04-20 23:16 51.56105 0.09260 27456 ft 259 kts 323°
2026-04-20 23:16 51.57655 0.07776 28050 ft 261 kts 323°
2026-04-20 23:16 51.59233 0.06262 28495 ft 267 kts 323°
2026-04-20 23:16 51.60835 0.04728 29044 ft 269 kts 323°
2026-04-20 23:17 51.62445 0.03183 29580 ft 271 kts 323°
2026-04-20 23:17 51.64067 0.01626 30106 ft 273 kts 323°
2026-04-20 23:17 51.65704 0.00052 30572 ft 275 kts 323°
2026-04-20 23:17 51.67349 -0.01531 31002 ft 277 kts 322°
2026-04-20 23:18 51.69000 -0.03117 31475 ft 276 kts 322°
2026-04-20 23:18 51.70649 -0.04707 31905 ft 277 kts 322°
2026-04-20 23:18 51.72309 -0.06309 32314 ft 278 kts 323°
2026-04-20 23:18 51.73953 -0.07897 32720 ft 279 kts 323°
2026-04-20 23:19 51.75646 -0.09531 33130 ft 280 kts 323°
2026-04-20 23:19 51.77301 -0.11132 33527 ft 282 kts 323°
2026-04-20 23:19 51.78989 -0.12764 33921 ft 283 kts 323°
2026-04-20 23:19 51.80676 -0.14399 34307 ft 284 kts 323°
2026-04-20 23:20 51.82382 -0.16055 34544 ft 290 kts 324°
2026-04-20 23:20 51.84146 -0.17768 34749 ft 293 kts 324°
2026-04-20 23:20 51.85896 -0.19465 35056 ft 294 kts 324°
2026-04-20 23:20 51.87655 -0.21174 35358 ft 295 kts 325°
2026-04-20 23:21 51.89419 -0.22892 35656 ft 297 kts 325°
2026-04-20 23:21 51.91193 -0.24620 35951 ft 298 kts 325°
2026-04-20 23:21 51.92973 -0.26355 36250 ft 299 kts 325°
2026-04-20 23:21 51.94740 -0.28079 36536 ft 301 kts 325°
2026-04-20 23:22 51.96535 -0.29832 36814 ft 302 kts 326°
2026-04-20 23:22 51.98359 -0.31615 37105 ft 303 kts 326°
2026-04-20 23:22 52.00143 -0.33361 37383 ft 304 kts 326°
2026-04-20 23:22 52.01958 -0.35139 37660 ft 305 kts 326°
2026-04-20 23:23 52.03778 -0.36923 37937 ft 306 kts 326°
2026-04-20 23:23 52.05606 -0.38718 38200 ft 308 kts 326°
2026-04-20 23:23 52.07447 -0.40526 38456 ft 310 kts 327°
2026-04-20 23:23 52.09292 -0.42340 38725 ft 311 kts 327°
2026-04-20 23:24 52.11145 -0.44164 38987 ft 311 kts 327°
2026-04-20 23:24 52.13000 -0.45991 39203 ft 312 kts 327°
2026-04-20 23:24 52.14857 -0.47823 39413 ft 312 kts 327°
2026-04-20 23:24 52.16718 -0.49660 39624 ft 313 kts 327°
2026-04-20 23:25 52.17952 -0.50880 39764 ft 313 kts 327°
2026-04-20 23:25 52.19818 -0.52724 39971 ft 314 kts 327°
2026-04-20 23:25 52.22316 -0.55198 40246 ft 314 kts 327°
2026-04-20 23:25 52.23555 -0.56426 40322 ft 317 kts 327°
2026-04-20 23:26 52.27414 -0.60256 40327 ft 332 kts 327°
2026-04-20 23:26 52.31431 -0.64249 40344 ft 344 kts 327°
2026-04-20 23:27 52.35585 -0.68389 40348 ft 355 kts 327°
2026-04-20 23:27 52.39854 -0.72653 40351 ft 364 kts 327°
2026-04-20 23:28 52.44218 -0.77023 40351 ft 371 kts 327°
2026-04-20 23:28 52.48654 -0.81474 40353 ft 377 kts 327°
2026-04-20 23:29 52.53153 -0.86000 40350 ft 382 kts 328°
2026-04-20 23:29 52.57699 -0.90584 40354 ft 385 kts 328°
2026-04-20 23:30 52.62287 -0.95222 40330 ft 388 kts 328°
2026-04-20 23:30 52.66905 -0.99903 40322 ft 391 kts 327°
2026-04-20 23:31 52.71548 -1.04620 40314 ft 393 kts 327°
2026-04-20 23:31 52.76217 -1.09360 40381 ft 394 kts 328°
2026-04-20 23:32 52.80925 -1.14045 40380 ft 396 kts 328°
2026-04-20 23:32 52.85634 -1.18794 40382 ft 397 kts 328°
2026-04-20 23:33 52.90356 -1.23544 40383 ft 397 kts 328°
2026-04-20 23:33 52.95083 -1.28323 40382 ft 398 kts 328°
2026-04-20 23:34 52.99811 -1.33111 40381 ft 398 kts 328°
2026-04-20 23:34 53.04549 -1.37923 40376 ft 399 kts 328°
2026-04-20 23:35 53.11659 -1.45168 40378 ft 400 kts 328°
2026-04-20 23:36 53.16405 -1.50019 40383 ft 400 kts 328°
2026-04-20 23:36 53.21148 -1.54880 40374 ft 400 kts 328°
2026-04-20 23:37 53.25891 -1.59754 40388 ft 400 kts 328°
2026-04-20 23:37 53.30634 -1.64641 40380 ft 401 kts 328°
2026-04-20 23:38 53.35352 -1.69515 40387 ft 401 kts 328°
2026-04-20 23:38 53.40094 -1.74426 40387 ft 401 kts 328°
2026-04-20 23:39 53.44837 -1.79353 40391 ft 401 kts 328°
2026-04-20 23:39 53.49577 -1.84286 40391 ft 401 kts 328°
2026-04-20 23:40 53.54318 -1.89228 40390 ft 401 kts 328°
2026-04-20 23:40 53.59057 -1.94184 40390 ft 401 kts 328°
2026-04-20 23:41 53.63798 -1.99162 40389 ft 401 kts 328°
2026-04-20 23:41 53.68532 -2.04151 40388 ft 401 kts 328°
2026-04-20 23:42 53.73268 -2.09149 40386 ft 401 kts 328°
2026-04-20 23:42 53.78345 -2.13013 40396 ft 400 kts 338°
2026-04-20 23:43 53.83473 -2.16527 40398 ft 401 kts 338°
2026-04-20 23:43 53.88647 -2.20059 40400 ft 401 kts 338°
2026-04-20 23:44 53.93813 -2.23602 40405 ft 401 kts 338°
2026-04-20 23:44 53.98978 -2.27151 40407 ft 401 kts 338°
2026-04-20 23:45 54.04152 -2.30716 40416 ft 401 kts 338°
2026-04-20 23:45 54.09324 -2.34289 40407 ft 401 kts 338°
2026-04-20 23:46 54.14499 -2.37874 40409 ft 401 kts 338°
2026-04-20 23:46 54.19637 -2.41442 40410 ft 402 kts 338°
2026-04-20 23:47 54.24814 -2.45048 40419 ft 402 kts 338°
2026-04-20 23:47 54.29989 -2.48662 40419 ft 402 kts 338°
2026-04-20 23:48 54.35159 -2.52283 40426 ft 401 kts 338°
2026-04-20 23:48 54.40329 -2.55913 40426 ft 401 kts 338°
2026-04-20 23:49 54.45500 -2.59554 40428 ft 401 kts 338°
2026-04-20 23:49 54.50668 -2.63203 40424 ft 402 kts 338°
2026-04-20 23:50 54.55853 -2.66874 40426 ft 403 kts 338°
2026-04-20 23:50 54.61008 -2.70533 40421 ft 403 kts 338°
2026-04-20 23:51 54.66194 -2.74225 40427 ft 403 kts 338°
2026-04-20 23:51 54.71383 -2.77930 40427 ft 403 kts 338°
2026-04-20 23:52 54.76571 -2.81643 40425 ft 404 kts 338°
2026-04-20 23:52 54.81764 -2.85371 40424 ft 404 kts 338°
2026-04-20 23:53 54.86964 -2.89114 40430 ft 405 kts 338°
2026-04-20 23:53 54.92164 -2.92869 40433 ft 405 kts 338°
2026-04-20 23:54 54.97361 -2.96630 40433 ft 405 kts 338°
2026-04-20 23:54 55.02562 -3.00406 40441 ft 405 kts 338°
2026-04-20 23:55 55.07729 -3.04168 40438 ft 405 kts 338°
2026-04-20 23:55 55.12925 -3.07961 40438 ft 405 kts 338°
2026-04-20 23:56 55.18124 -3.11768 40442 ft 405 kts 338°
2026-04-20 23:56 55.23323 -3.15585 40443 ft 405 kts 338°
2026-04-20 23:57 55.28585 -3.19119 40448 ft 404 kts 347°
2026-04-20 23:57 55.34161 -3.19778 40459 ft 403 kts
2026-04-20 23:58 55.39752 -3.18877 40462 ft 403 kts
2026-04-20 23:58 55.45349 -3.18018 40470 ft 404 kts
2026-04-20 23:59 55.50947 -3.17132 40465 ft 404 kts
2026-04-20 23:59 55.56558 -3.17114 40469 ft 405 kts 351°
2026-04-20 23:59 55.59256 -3.18380 40470 ft 406 kts 340°
2026-04-21 00:00 55.61796 -3.20515 40475 ft 404 kts 329°
2026-04-21 00:00 55.66624 -3.25555 40479 ft 403 kts 340°
2026-04-21 00:00 55.69313 -3.26927 40482 ft 403 kts 351°
2026-04-21 00:01 55.72096 -3.27373 40482 ft 402 kts
2026-04-21 00:01 55.74874 -3.26876 40481 ft 402 kts 12°
2026-04-21 00:01 55.77529 -3.25502 40227 ft 391 kts 22°
2026-04-21 00:01 55.79936 -3.23334 39678 ft 385 kts 33°
2026-04-21 00:02 55.82024 -3.20413 39136 ft 380 kts 44°
2026-04-21 00:02 55.83720 -3.16860 38481 ft 375 kts 56°
2026-04-21 00:02 55.84965 -3.12815 37834 ft 371 kts 67°
2026-04-21 00:02 55.85706 -3.08514 37216 ft 367 kts 79°
2026-04-21 00:03 55.85940 -3.04015 36607 ft 364 kts 90°
2026-04-21 00:03 55.85648 -2.99577 36015 ft 361 kts 102°
2026-04-21 00:03 55.84846 -2.95373 35432 ft 358 kts 115°
2026-04-21 00:03 55.83573 -2.91593 34869 ft 355 kts 127°
2026-04-21 00:04 55.81893 -2.88410 34278 ft 352 kts 139°
2026-04-21 00:04 55.79884 -2.85961 33613 ft 349 kts 151°
2026-04-21 00:04 55.77642 -2.84351 32964 ft 347 kts 163°
2026-04-21 00:04 55.75274 -2.83650 32332 ft 345 kts 175°
2026-04-21 00:05 55.72893 -2.83882 31719 ft 343 kts 187°
2026-04-21 00:05 55.70605 -2.85031 31116 ft 342 kts 199°
2026-04-21 00:05 55.68517 -2.87040 30515 ft 342 kts 211°
2026-04-21 00:05 55.66723 -2.89820 29811 ft 344 kts 224°
2026-04-21 00:06 55.65320 -2.93186 29105 ft 346 kts 235°
2026-04-21 00:06 55.64241 -2.96990 28414 ft 346 kts 243°
2026-04-21 00:06 55.63432 -3.01001 27743 ft 346 kts 248°
2026-04-21 00:06 55.62736 -3.05066 27079 ft 344 kts 249°
2026-04-21 00:07 55.62074 -3.09118 26433 ft 342 kts 249°
2026-04-21 00:07 55.61424 -3.13153 25795 ft 340 kts 248°
2026-04-21 00:07 55.60712 -3.17108 25176 ft 335 kts 243°
2026-04-21 00:07 55.59794 -3.20854 24568 ft 329 kts 236°
2026-04-21 00:08 55.58642 -3.24286 23962 ft 321 kts 227°
2026-04-21 00:08 55.57272 -3.27329 23256 ft 313 kts 219°
2026-04-21 00:08 55.55687 -3.29880 22566 ft 303 kts 207°
2026-04-21 00:08 55.53898 -3.31732 21890 ft 295 kts 199°
2026-04-21 00:09 55.52055 -3.33275 21225 ft 292 kts 198°
2026-04-21 00:09 55.50259 -3.34845 20604 ft 292 kts 203°
2026-04-21 00:09 55.48415 -3.36243 19971 ft 284 kts 186°
2026-04-21 00:09 55.46486 -3.36346 19368 ft 275 kts 167°
2026-04-21 00:10 55.44706 -3.35294 18768 ft 269 kts 148°
2026-04-21 00:10 55.43262 -3.33272 18088 ft 265 kts 130°
2026-04-21 00:10 55.42294 -3.30544 17410 ft 263 kts 111°
2026-04-21 00:10 55.41898 -3.27417 16757 ft 263 kts 94°
2026-04-21 00:11 55.42115 -3.24223 16120 ft 265 kts 76°
2026-04-21 00:11 55.42932 -3.21311 15495 ft 269 kts 57°
2026-04-21 00:11 55.44285 -3.19013 14887 ft 274 kts 37°
2026-04-21 00:11 55.45944 -3.17353 14277 ft 273 kts 33°
2026-04-21 00:12 55.47608 -3.15744 13602 ft 272 kts 33°
2026-04-21 00:12 55.49257 -3.14122 12926 ft 270 kts 33°
2026-04-21 00:12 55.50881 -3.12517 12410 ft 265 kts 33°
2026-04-21 00:12 55.52452 -3.10972 11902 ft 260 kts 33°
2026-04-21 00:13 55.54018 -3.09429 11389 ft 256 kts 33°
2026-04-21 00:13 55.55557 -3.07913 10885 ft 251 kts 33°
2026-04-21 00:13 55.57093 -3.06489 10390 ft 250 kts 25°
2026-04-21 00:13 55.58797 -3.05885 9851 ft 253 kts
2026-04-21 00:14 55.60546 -3.06277 9313 ft 256 kts 346°
2026-04-21 00:14 55.62148 -3.07666 8789 ft 259 kts 327°
2026-04-21 00:14 55.63416 -3.09926 8267 ft 260 kts 306°
2026-04-21 00:14 55.64195 -3.12798 7761 ft 260 kts 286°
2026-04-21 00:15 55.64388 -3.15932 7465 ft 249 kts 265°
2026-04-21 00:15 55.64054 -3.18797 7468 ft 230 kts 246°
2026-04-21 00:15 55.63313 -3.21194 7460 ft 217 kts 229°
2026-04-21 00:15 55.62258 -3.23074 7463 ft 215 kts 213°
2026-04-21 00:16 55.61422 -3.24003 7458 ft 213 kts 204°
2026-04-21 00:16 55.60133 -3.25300 7462 ft 215 kts 213°
2026-04-21 00:16 55.59247 -3.27433 7461 ft 221 kts 248°
2026-04-21 00:16 55.58284 -3.30569 7460 ft 221 kts 241°
2026-04-21 00:17 55.58003 -3.32332 7461 ft 223 kts 266°
2026-04-21 00:17 55.58350 -3.34957 7466 ft 222 kts 303°
2026-04-21 00:17 55.59407 -3.36879 7470 ft 218 kts 324°
2026-04-21 00:17 55.60549 -3.38645 7447 ft 220 kts 315°
2026-04-21 00:18 55.61429 -3.40818 7283 ft 220 kts 301°
2026-04-21 00:18 55.62152 -3.43194 7112 ft 219 kts 300°
2026-04-21 00:18 55.62856 -3.45381 6955 ft 218 kts 302°
2026-04-21 00:18 55.63636 -3.47672 6783 ft 217 kts 302°
2026-04-21 00:19 55.64408 -3.49957 6604 ft 216 kts 302°
2026-04-21 00:19 55.65173 -3.52237 6379 ft 215 kts 302°
2026-04-21 00:19 55.65937 -3.54522 6144 ft 215 kts 302°
2026-04-21 00:19 55.66696 -3.56787 5909 ft 214 kts 302°
2026-04-21 00:20 55.67452 -3.59050 5671 ft 213 kts 302°
2026-04-21 00:20 55.68206 -3.61307 5460 ft 212 kts 302°
2026-04-21 00:20 55.68987 -3.63524 5298 ft 210 kts 311°
2026-04-21 00:20 55.70043 -3.65227 5145 ft 203 kts 324°
2026-04-21 00:21 55.71122 -3.66815 4989 ft 200 kts 322°
2026-04-21 00:21 55.72177 -3.68413 4828 ft 198 kts 323°
2026-04-21 00:21 55.73220 -3.69975 4659 ft 195 kts 324°
2026-04-21 00:21 55.74262 -3.71527 4500 ft 196 kts 324°
2026-04-21 00:22 55.75290 -3.73063 4379 ft 195 kts 324°
2026-04-21 00:22 55.76285 -3.74649 4374 ft 188 kts 323°
2026-04-21 00:22 55.77267 -3.76147 4365 ft 184 kts 324°
2026-04-21 00:22 55.78225 -3.77618 4361 ft 181 kts 325°
2026-04-21 00:23 55.79307 -3.78522 4352 ft 168 kts 360°
2026-04-21 00:23 55.80429 -3.78302 4352 ft 159 kts 27°
2026-04-21 00:23 55.81310 -3.77203 4355 ft 154 kts 53°
2026-04-21 00:23 55.81871 -3.75627 4359 ft 153 kts 62°
2026-04-21 00:24 55.82441 -3.73996 4370 ft 155 kts 60°
2026-04-21 00:24 55.83015 -3.72393 4374 ft 156 kts 60°
2026-04-21 00:24 55.83599 -3.70756 4352 ft 158 kts 60°
2026-04-21 00:24 55.84184 -3.69060 4188 ft 163 kts 61°
2026-04-21 00:25 55.84775 -3.67321 3975 ft 166 kts 61°
2026-04-21 00:25 55.85377 -3.65551 3741 ft 168 kts 61°
2026-04-21 00:25 55.85982 -3.63771 3504 ft 168 kts 61°
2026-04-21 00:25 55.86585 -3.61997 3268 ft 167 kts 61°
2026-04-21 00:26 55.87177 -3.60260 3036 ft 159 kts 61°
2026-04-21 00:26 55.87735 -3.58623 2817 ft 151 kts 61°
2026-04-21 00:26 55.88267 -3.57060 2607 ft 144 kts 61°
2026-04-21 00:26 55.88768 -3.55593 2418 ft 130 kts 62°
2026-04-21 00:27 55.89208 -3.54306 2242 ft 114 kts 62°
2026-04-21 00:27 55.89599 -3.53155 2090 ft 105 kts 62°
2026-04-21 00:27 55.89967 -3.52066 1943 ft 101 kts 62°
2026-04-21 00:27 55.90338 -3.50972 1800 ft 104 kts 62°
2026-04-21 00:28 55.90714 -3.49860 1653 ft 106 kts 62°
2026-04-21 00:28 55.91103 -3.48712 1497 ft 110 kts 61°
2026-04-21 00:28 55.91512 -3.47546 1342 ft 112 kts 60°
2026-04-21 00:28 55.91927 -3.46369 1170 ft 112 kts 59°
2026-04-21 00:29 55.92324 -3.45185 1020 ft 111 kts 62°
2026-04-21 00:29 55.92717 -3.44006 858 ft 111 kts 60°
2026-04-21 00:29 55.93115 -3.42829 681 ft 113 kts 60°
2026-04-21 00:29 55.93520 -3.41641 526 ft 112 kts 60°
2026-04-21 00:30 55.93909 -3.40462 383 ft 109 kts 60°
2026-04-21 00:30 55.94304 -3.39310 212 ft 107 kts 60°
2026-04-21 00:30 55.94672 -3.38215 114 ft 97 kts 60°
2026-04-21 00:30 55.94988 -3.37277 102 ft 77 kts 58°
2026-04-21 00:31 55.95125 -3.36876 104 ft 28 kts 58°
2026-04-21 00:31 55.95192 -3.36681 103 ft 14 kts 59°
2026-04-21 00:31 55.95247 -3.36518 98 ft 15 kts 63°
2026-04-21 00:31 55.95222 -3.36381 96 ft 12 kts 148°
2026-04-21 00:32 55.95156 -3.36311 98 ft 10 kts 142°
2026-04-21 00:32 55.95156 -3.36211 98 ft 9 kts 55°
2026-04-21 00:32 55.95194 -3.36105 97 ft 11 kts 57°
2026-04-21 00:32 55.95239 -3.35969 95 ft 13 kts 60°
2026-04-21 00:33 55.95264 -3.35864 97 ft 7 kts 100°
2026-04-21 00:33 55.95241 -3.35815 99 ft 6 kts 146°
2026-04-21 00:33 55.95211 -3.35751 102 ft 3 kts 116°
2026-04-21 00:33 55.95215 -3.35724 102 ft 3 kts 28°
2026-04-21 00:34 55.95238 -3.35703 102 ft 3 kts 29°
2026-04-21 00:34 55.95241 -3.35700 102 ft 0 kts 34°
2026-04-21 00:34 55.95242 -3.35694 102 ft 1 kts 108°
2026-04-21 00:34 55.95223 -3.35680 103 ft 4 kts 158°
2026-04-21 00:35 55.95216 -3.35658 103 ft 1 kts 59°
2026-04-21 00:35 55.95230 -3.35643 103 ft 2 kts 28°
2026-04-21 00:35 55.95236 -3.35637 103 ft 1 kts 27°
2026-04-21 00:35 55.95238 -3.35635 103 ft 0 kts 27°